| time (UTC) | temp F | wind direction | speed MPH | gust MPH | rain 1hr in | rain 24hr in | rain mn in | humidity % | barometer mb |
| 20260902210100 | 57 | 64 | 0.0 | 0.0 | 0.03 | 0.08 | 0.08 | 83 | 994.8 |
| 20260902204559 | 55 | 37 | 0.0 | 2.0 | 0.04 | 0.08 | 0.08 | 83 | 995.1 |
| 20260902203057 | 55 | 42 | 0.0 | 0.0 | 0.03 | 0.07 | 0.07 | 82 | 995.2 |
| 20260902201557 | 55 | 141 | 0.0 | 1.0 | 0.03 | 0.06 | 0.06 | 82 | 995.2 |
| 20260902200107 | 55 | 160 | 0.0 | 3.0 | 0.02 | 0.05 | 0.05 | 82 | 995.1 |
| 20260902194600 | 55 | 248 | 0.0 | 2.0 | 0.02 | 0.04 | 0.04 | 83 | 995.1 |
| 20260902193055 | 55 | 252 | 0.0 | 1.0 | 0.03 | 0.04 | 0.04 | 82 | 995.2 |
| 20260902191556 | 55 | 256 | 0.0 | 3.0 | 0.03 | 0.03 | 0.03 | 82 | 995.2 |
| 20260902190055 | 55 | 205 | 0.0 | 1.0 | 0.03 | 0.03 | 0.03 | 82 | 995.0 |
| 20260902184558 | 55 | 256 | 0.0 | 0.0 | 0.02 | 0.02 | 0.02 | 77 | 994.8 |
| 20260902183050 | 55 | 44 | 0.0 | 0.0 | 0.01 | 0.01 | 0.01 | 81 | 994.4 |
| 20260902181549 | 55 | 44 | 0.0 | 0.0 | 0.00 | 0.00 | 0.00 | 82 | 994.4 |
| 20260902180108 | 55 | 54 | 0.0 | 2.0 | 0.00 | 0.00 | 0.00 | 83 | 994.7 |
| 20260902174548 | 55 | 51 | 0.0 | 1.0 | 0.00 | 0.00 | 0.00 | 83 | 994.5 |
| 20260902173048 | 54 | 174 | 0.0 | 0.0 | 0.00 | 0.00 | 0.00 | 83 | 994.6 |
| 20260902171547 | 55 | 174 | 0.0 | 0.0 | 0.00 | 0.00 | 0.00 | 83 | 994.5 |
| 20260902170044 | 56 | 176 | 0.0 | 2.0 | 0.00 | 0.00 | 0.00 | 80 | 994.2 |
| 20260902164542 | 57 | 150 | 0.0 | 3.0 | 0.00 | 0.00 | 0.00 | 75 | 993.9 |
| 20260902163040 | 57 | 239 | 0.0 | 2.0 | 0.00 | 0.00 | 0.00 | 74 | 993.7 |
| 20260902161549 | 57 | 256 | 1.0 | 5.0 | 0.00 | 0.00 | 0.00 | 74 | 993.5 |
| 20260902160038 | 57 | 143 | 0.0 | 1.0 | 0.00 | 0.00 | 0.00 | 76 | 993.2 |
| 20260902154537 | 58 | 221 | 0.0 | 2.0 | 0.00 | 0.00 | 0.00 | 74 | 993.6 |
| 20260902153035 | 57 | 278 | 1.0 | 10.0 | 0.00 | 0.00 | 0.00 | 75 | 993.5 |
| 20260902151534 | 56 | 127 | 1.0 | 8.0 | 0.00 | 0.00 | 0.00 | 78 | 993.3 |
| 20260902150027 | 53 | 160 | 0.0 | 0.0 | 0.00 | 0.00 | 0.00 | 84 | 993.2 |
| 20260902144532 | 52 | 48 | 0.0 | 0.0 | 0.00 | 0.00 | 0.00 | 83 | 993.1 |
| 20260902143024 | 52 | 49 | 0.0 | 0.0 | 0.00 | 0.00 | 0.00 | 80 | 993.0 |
| 20260902141525 | 51 | 48 | 0.0 | 0.0 | 0.00 | 0.00 | 0.00 | 78 | 992.8 |
| 20260902140020 | 50 | 48 | 0.0 | 0.0 | 0.00 | 0.00 | 0.00 | 76 | 992.4 |
| 20260902134532 | 50 | 46 | 1.0 | 3.0 | 0.00 | 0.00 | 0.00 | 74 | 992.4 |
| 20260902133021 | 50 | 47 | 0.0 | 2.0 | 0.00 | 0.00 | 0.00 | 75 | 992.1 |
| 20260902131515 | 49 | 46 | 0.0 | 1.0 | 0.00 | 0.00 | 0.00 | 76 | 992.1 |
| 20260902130015 | 50 | 47 | 1.0 | 2.0 | 0.00 | 0.00 | 0.00 | 73 | 991.9 |
| 20260902124512 | 49 | 46 | 1.0 | 3.0 | 0.00 | 0.00 | 0.00 | 74 | 991.9 |
| 20260902123010 | 49 | 43 | 1.0 | 2.0 | 0.00 | 0.00 | 0.00 | 78 | 991.7 |
| 20260902121509 | 49 | 42 | 1.0 | 2.0 | 0.00 | 0.00 | 0.00 | 79 | 991.6 |
| 20260902120009 | 49 | 43 | 1.0 | 3.0 | 0.00 | 0.00 | 0.00 | 79 | 991.6 |
| 20260902114507 | 49 | 38 | 1.0 | 3.0 | 0.00 | 0.00 | 0.00 | 81 | 991.4 |
| 20260902113011 | 50 | 27 | 0.0 | 1.0 | 0.00 | 0.00 | 0.00 | 79 | 991.5 |
| 20260902111515 | 49 | 20 | 0.0 | 2.0 | 0.00 | 0.00 | 0.00 | 78 | 991.0 |
| 20260902110005 | 49 | 44 | 2.0 | 3.0 | 0.00 | 0.00 | 0.00 | 79 | 991.1 |
| 20260902104501 | 50 | 46 | 2.0 | 3.0 | 0.00 | 0.00 | 0.00 | 81 | 991.2 |
| 20260902103059 | 49 | 44 | 2.0 | 3.0 | 0.00 | 0.00 | 0.00 | 82 | 991.2 |
| 20260902101604 | 50 | 47 | 2.0 | 3.0 | 0.00 | 0.00 | 0.00 | 82 | 991.4 |
| 20260902100109 | 50 | 44 | 2.0 | 3.0 | 0.00 | 0.00 | 0.00 | 83 | 991.5 |
| 20260902094554 | 50 | 44 | 1.0 | 3.0 | 0.00 | 0.00 | 0.00 | 83 | 991.4 |
| 20260902093052 | 50 | 42 | 2.0 | 3.0 | 0.00 | 0.00 | 0.00 | 83 | 991.6 |
| 20260902091554 | 50 | 46 | 1.0 | 3.0 | 0.00 | 0.00 | 0.00 | 83 | 991.6 |
| 20260902090049 | 50 | 40 | 1.0 | 3.0 | 0.00 | 0.00 | 0.00 | 83 | 991.7 |
| 20260902084558 | 50 | 46 | 1.0 | 2.0 | 0.00 | 0.00 | 0.00 | 83 | 991.8 |
| 20260902083047 | 51 | 50 | 2.0 | 3.0 | 0.00 | 0.00 | 0.00 | 83 | 991.6 |
| 20260902081549 | 51 | 46 | 1.0 | 3.0 | 0.00 | 0.00 | 0.00 | 83 | 991.5 |
| 20260902080041 | 52 | 34 | 1.0 | 3.0 | 0.00 | 0.00 | 0.00 | 83 | 991.6 |
| 20260902074538 | 52 | 44 | 2.0 | 3.0 | 0.00 | 0.00 | 0.00 | 82 | 991.9 |
| 20260902073048 | 52 | 51 | 2.0 | 3.0 | 0.00 | 0.00 | 0.00 | 83 | 991.8 |
| 20260902071537 | 52 | 44 | 2.0 | 4.0 | 0.00 | 0.00 | 0.00 | 82 | 991.8 |
| 20260902070031 | 52 | 43 | 2.0 | 3.0 | 0.00 | 0.00 | 0.00 | 81 | 991.9 |
| 20260902064535 | 53 | 13 | 2.0 | 3.0 | 0.00 | 0.00 | 0.00 | 80 | 991.9 |
| 20260902063030 | 53 | 37 | 1.0 | 2.0 | 0.00 | 0.00 | 0.00 | 80 | 992.0 |
| 20260902061530 | 54 | 44 | 2.0 | 3.0 | 0.00 | 0.00 | 0.00 | 80 | 992.0 |
| 20260902060034 | 53 | 43 | 2.0 | 3.0 | 0.00 | 0.00 | 0.00 | 79 | 992.0 |
| 20260902054528 | 54 | 46 | 2.0 | 3.0 | 0.00 | 0.00 | 0.00 | 78 | 992.2 |
| 20260902053029 | 54 | 44 | 2.0 | 3.0 | 0.00 | 0.00 | 0.00 | 77 | 992.2 |
| 20260902051529 | 55 | 40 | 1.0 | 3.0 | 0.00 | 0.00 | 0.00 | 77 | 992.2 |
| 20260902050027 | 55 | 46 | 2.0 | 4.0 | 0.00 | 0.00 | 0.00 | 76 | 992.3 |
| 20260902044527 | 56 | 46 | 2.0 | 3.0 | 0.00 | 0.00 | 0.00 | 74 | 992.2 |
| 20260902043026 | 58 | 46 | 2.0 | 3.0 | 0.00 | 0.00 | 0.00 | 73 | 992.1 |
| 20260902041525 | 59 | 32 | 1.0 | 2.0 | 0.00 | 0.00 | 0.00 | 72 | 992.0 |
| 20260902040026 | 60 | 37 | 0.0 | 2.0 | 0.00 | 0.00 | 0.00 | 69 | 992.0 |
| 20260902034525 | 61 | 41 | 1.0 | 2.0 | 0.00 | 0.00 | 0.00 | 68 | 992.1 |
| 20260902033023 | 61 | 28 | 0.0 | 1.0 | 0.00 | 0.00 | 0.00 | 69 | 992.1 |
| 20260902031523 | 63 | 34 | 1.0 | 2.0 | 0.00 | 0.00 | 0.00 | 65 | 992.1 |
| 20260902030022 | 63 | 44 | 1.0 | 2.0 | 0.00 | 0.00 | 0.00 | 64 | 992.0 |
| 20260902024522 | 63 | 47 | 1.0 | 2.0 | 0.00 | 0.00 | 0.00 | 62 | 991.9 |
| 20260902023023 | 64 | 46 | 2.0 | 3.0 | 0.00 | 0.00 | 0.00 | 61 | 991.9 |
| 20260902021521 | 65 | 221 | 1.0 | 2.0 | 0.00 | 0.00 | 0.00 | 56 | 991.9 |
| 20260902020024 | 67 | 221 | 0.0 | 2.0 | 0.00 | 0.00 | 0.00 | 54 | 992.0 |
| 20260902014532 | 69 | 221 | 1.0 | 1.0 | 0.00 | 0.00 | 0.00 | 58 | 992.1 |
| 20260902013020 | 70 | 222 | 0.0 | 0.0 | 0.00 | 0.00 | 0.00 | 50 | 992.2 |
| 20260902011535 | 71 | 221 | 0.0 | 0.0 | 0.00 | 0.00 | 0.00 | 53 | 992.2 |
| 20260902010019 | 71 | 221 | 0.0 | 1.0 | 0.00 | 0.00 | 0.00 | 58 | 992.4 |
| 20260902004517 | 71 | 32 | 0.0 | 1.0 | 0.00 | 0.00 | 0.00 | 49 | 992.3 |
| 20260902003017 | 70 | 332 | 1.0 | 3.0 | 0.00 | 0.00 | 0.00 | 50 | 992.1 |
| 20260902001520 | 68 | 18 | 1.0 | 3.0 | 0.00 | 0.00 | 0.00 | 64 | 992.2 |
| 20260902000016 | 69 | 58 | 1.0 | 3.0 | 0.00 | 0.00 | 0.00 | 61 | 992.5 |
| 20260901234514 | 71 | 37 | 0.0 | 2.0 | 0.00 | 0.00 | 0.00 | 52 | 992.4 |
| 20260901233014 | 73 | 44 | 0.0 | 2.0 | 0.00 | 0.00 | 0.00 | 45 | 992.4 |
| 20260901231513 | 73 | 128 | 0.0 | 3.0 | 0.00 | 0.00 | 0.00 | 45 | 992.2 |
| 20260901230013 | 74 | 78 | 0.0 | 4.0 | 0.00 | 0.00 | 0.00 | 41 | 992.2 |
| 20260901224512 | 75 | 207 | 0.0 | 2.0 | 0.00 | 0.00 | 0.00 | 41 | 992.2 |
| 20260901223012 | 75 | 200 | 0.0 | 3.0 | 0.00 | 0.00 | 0.00 | 42 | 992.4 |
| 20260901221510 | 75 | 277 | 0.0 | 1.0 | 0.00 | 0.00 | 0.00 | 42 | 992.3 |
| 20260901220009 | 75 | 197 | 0.0 | 1.0 | 0.00 | 0.00 | 0.00 | 42 | 992.4 |
| 20260901214526 | 75 | 274 | 1.0 | 2.0 | 0.00 | 0.00 | 0.00 | 42 | 992.4 |
| 20260901213009 | 75 | 211 | 0.0 | 4.0 | 0.00 | 0.00 | 0.00 | 40 | 992.3 |
| 20260901211509 | 75 | 212 | 0.0 | 2.0 | 0.00 | 0.00 | 0.00 | 40 | 991.8 |